Location: Gu�tanj
(46.5431°N, 14.9692°E)
Time: 07:28:54
(UTC+00:00)

Cosmos 2360 Rocket - Pass Details

Date: 03 March 2021
Orbit: 833 x 846 km, 71.0° (Epoch: 18 April)

Event Time Altitude Azimuth Distance (km) Brightness Sun altitude
Rises 18:37:23 0° 213° (SSW) 3,376 5.6 -19.3°
Reaches altitude 10° 18:39:50 10° 215° (SW) 2,448 4.9 -19.8°
Maximum altitude 18:45:25 69° 299° (WNW) 903 2.5 -20.7°
Drops below altitude 10° 18:51:05 10° 23° (NNE) 2,472 4.5 -21.6°
Sets 18:53:34 0° 26° (NNE) 3,413 5.2 -22.1°
